User: anonymous   Login
Location: Ostrava
(49.8330°N, 18.2830°E)
Time: 21:59:56
(UTC+02:00)
Language:

Cosmos 1400 Rocket - Orbit

View from above orbital plane
View from above orbital plane
View from above satellite
View from above satellite

Ground track
Ground track

The orbit data is extracted from the following two-line orbital elements,

1 13403U 82079B   16152.52082181  .00000141  00000-0  78087-5 0  9990
2 13403  81.1682 346.3715 0035676  95.7028 264.8265 15.06204852839260
Epoch (UTC): 31 May 2016 12:29:59
Eccentricity: 0.0035676
inclination: 81.1682°
perigee height: 523 km
apogee height: 572 km
right ascension of ascending node: 346.3715°
argument of perigee: 95.7028°
revolutions per day: 15.06204852
mean anomaly at epoch: 264.8265°
orbit number at epoch: 83926

The dashed part of the orbit path shows where the satellite is in the earth's shadow,  

DLR